NIMIQ 4

Last updated on Wed Sep 17 2025 00:02:46 GMT+0000 (Coordinated Universal Time)

1 33373U 08044A 25259.42469797 -.00000239 00000+0 00000+0 0 9999 2 33373 0.0233 112.0517 0001492 63.8468 250.6209 1.00270867 62235
UTC large
Height (km)
Speed (km/s)
/
Latitude / Longitude
Inclination (degrees)
Orbital Period (minutes)
Azimuth
Elevation
Range (km)
Doppler Factor

Next 0 passes for location: London (51.5072 / 0.1276)

Sorry there are no passes over London.